Tracking 18987 objects as of 25-Feb-2018
HD Live streaming from Space Station
objects crossing your sky now

ECHOSTAR 1

Track ECHOSTAR 1 now!
ECHOSTAR 1 is classified as:


NORAD ID: 23754
Int'l Code: 1995-073A
Perigee: 36,152.7 km
Apogee: 36,195.0 km
Inclination: 1.3 °
Period: 1,455.6 minutes
Semi major axis: 42544 km
RCS: 30.9641 m2 (large)
Launch date: December 28, 1995
Source: United States (US)
Launch site: Xichang Space Center, China (XSC)

Western United States to Central/Mountain region; 16 Ku-band transponders
aabbcc
Your satellite tracking list
Your tracking list is empty




NASA's NSSDC Master Catalog

Two Line Element Set (TLE):
1 23754U 95073A   18055.82046682 +.00000009 +00000-0 +00000-0 0  9999
2 23754 001.3409 088.8932 0004976 224.4746 176.3808 00.98930992021985
Source of the keplerian elements: AFSPC